Precipitable_Water
1.25 1.20 1.32 1.17 0.74 0.63 0.47 0.50 0.57 0.52 0.60 0.84 0.92 0.86 0.90 1.05 0.91 0.83 1.40 1.37 1.46 1.37 1.42 1.45 1.41 1.38 1.37 1.34 1.32 1.32 1.30 1.28 1.26 1.26 1.26 1.26 1.28 1.34 1.39 1.38 1.35 1.31 1.28 1.29 1.34 1.32 1.32 1.32 1.30
0.94 1.28 1.12 1.02 0.64 0.52 0.47 0.56 0.53 0.55 0.76 0.89 0.95 0.96 0.91 0.92 1.17 1.18 1.17 1.42 1.47 1.31 1.39 1.44 1.42 1.38 1.37 1.36 1.36 1.36 1.35 1.30 1.28 1.29 1.28 1.27 1.25 1.23 1.22 1.19 1.18 1.17 1.17 1.20 1.21 1.23 1.24 1.26 1.32
0.63 1.32 0.92 0.77 0.65 0.51 0.52 0.55 0.63 0.67 0.76 0.76 0.87 1.08 0.98 0.95 1.20 1.25 1.37 1.37 1.41 1.36 1.41 1.40 1.43 1.47 1.42 1.41 1.40 1.35 1.34 1.31 1.22 1.13 1.07 1.03 0.99 0.99 1.00 0.99 0.94 0.91 0.92 0.94 0.99 1.04 1.13 1.22 1.29
0.58 0.91 1.00 0.63 0.57 0.63 0.68 0.72 0.74 0.70 0.77 0.74 0.90 0.84 1.09 1.34 1.24 1.42 1.49 1.44 1.32 1.40 1.42 1.41 1.49 1.51 1.48 1.42 1.41 1.34 1.25 1.09 0.95 0.90 0.81 0.74 0.72 0.70 0.66 0.64 0.66 0.68 0.69 0.71 0.73 0.76 0.79 0.88 0.99
0.68 0.62 0.66 0.63 0.57 0.71 0.77 0.87 0.85 0.71 0.75 0.73 0.80 0.77 0.90 1.31 1.46 1.53 1.48 1.47 1.29 1.37 1.42 1.42 1.49 1.50 1.46 1.36 1.25 1.16 1.02 0.87 0.77 0.68 0.62 0.56 0.51 0.47 0.47 0.47 0.50 0.52 0.54 0.55 0.56 0.57 0.59 0.62 0.66
0.45 0.54 0.39 0.51 0.58 0.68 0.83 0.86 0.89 0.72 0.78 0.82 0.83 0.83 0.98 1.40 1.39 1.47 1.53 1.51 1.40 1.34 1.39 1.42 1.45 1.39 1.31 1.21 1.07 0.89 0.75 0.68 0.60 0.51 0.46 0.42 0.41 0.46 0.50 0.51 0.54 0.53 0.52 0.51 0.51 0.52 0.53 0.53 0.54
0.42 0.38 0.29 0.48 0.61 0.64 0.81 0.85 0.81 0.84 0.83 0.84 1.01 0.81 1.03 1.25 1.43 1.53 1.56 1.57 1.49 1.35 1.34 1.36 1.33 1.28 1.20 1.01 0.82 0.70 0.61 0.51 0.47 0.45 0.44 0.43 0.47 0.50 0.53 0.54 0.53 0.53 0.51 0.51 0.52 0.53 0.54 0.54 0.56
0.48 0.44 0.31 0.36 0.53 0.60 0.85 0.78 0.85 0.90 0.92 1.13 1.19 0.79 0.85 1.21 1.46 1.53 1.57 1.55 1.51 1.37 1.25 1.25 1.17 1.05 0.91 0.82 0.68 0.56 0.49 0.50 0.49 0.47 0.45 0.48 0.51 0.52 0.55 0.53 0.52 0.54 0.53 0.54 0.56 0.56 0.55 0.56 0.56
0.58 0.37 0.26 0.31 0.47 0.65 0.79 0.78 0.92 1.09 0.99 1.06 1.17 1.11 1.17 1.38 1.50 1.44 1.44 1.44 1.37 1.22 1.12 1.06 1.00 0.92 0.83 0.73 0.60 0.55 0.52 0.51 0.50 0.49 0.48 0.49 0.50 0.52 0.52 0.51 0.53 0.53 0.53 0.56 0.58 0.58 0.59 0.58 0.58
0.49 0.35 0.30 0.41 0.49 0.69 0.74 0.75 0.85 0.93 0.91 0.96 1.07 1.25 1.28 1.35 1.38 1.31 1.34 1.29 1.27 1.18 1.05 0.97 0.93 0.84 0.74 0.63 0.55 0.55 0.52 0.51 0.51 0.50 0.47 0.47 0.49 0.50 0.48 0.49 0.50 0.49 0.51 0.51 0.53 0.55 0.55 0.55 0.55
0.44 0.35 0.40 0.37 0.50 0.74 0.79 0.75 0.85 0.87 0.82 0.92 0.88 1.03 1.18 1.22 1.27 1.31 1.32 1.28 1.22 1.23 1.09 1.01 0.94 0.84 0.71 0.55 0.54 0.54 0.52 0.51 0.53 0.51 0.48 0.45 0.46 0.46 0.48 0.47 0.47 0.48 0.49 0.49 0.50 0.51 0.53 0.54 0.55
0.40 0.48 0.42 0.36 0.50 0.57 0.72 0.87 0.78 0.78 0.81 0.94 1.01 1.10 1.12 1.11 1.14 1.25 1.27 1.26 1.25 1.21 1.11 1.04 0.92 0.78 0.63 0.54 0.53 0.52 0.51 0.53 0.50 0.49 0.45 0.45 0.44 0.46 0.44 0.43 0.45 0.47 0.48 0.44 0.47 0.50 0.54 0.56 0.58
0.45 0.43 0.43 0.44 0.51 0.56 0.75 0.73 0.76 0.78 0.90 1.00 1.08 1.12 1.07 1.10 1.14 1.26 1.30 1.25 1.25 1.17 1.09 1.00 0.87 0.73 0.58 0.53 0.52 0.52 0.52 0.52 0.49 0.45 0.45 0.45 0.45 0.43 0.43 0.44 0.43 0.45 0.45 0.43 0.46 0.51 0.52 0.53 0.57
0.49 0.44 0.46 0.42 0.52 0.61 0.64 0.72 0.67 0.74 1.00 1.02 1.06 0.98 1.02 1.07 1.11 1.16 1.18 1.15 1.17 1.13 1.04 0.97 0.84 0.71 0.58 0.53 0.51 0.52 0.53 0.52 0.48 0.44 0.44 0.46 0.45 0.44 0.43 0.41 0.41 0.43 0.43 0.43 0.48 0.48 0.47 0.50 0.57
0.53 0.46 0.45 0.40 0.54 0.59 0.63 0.58 0.57 0.79 0.89 0.97 0.97 0.95 0.99 1.02 1.12 1.09 1.12 1.09 1.14 1.09 1.02 0.94 0.83 0.70 0.57 0.54 0.53 0.54 0.53 0.49 0.45 0.42 0.45 0.46 0.47 0.44 0.43 0.42 0.41 0.43 0.44 0.46 0.46 0.43 0.41 0.45 0.55
0.50 0.44 0.32 0.40 0.51 0.58 0.60 0.42 0.54 0.82 0.81 0.79 0.87 0.91 0.94 0.98 1.03 1.10 1.07 1.10 1.13 1.04 0.95 0.91 0.81 0.69 0.59 0.56 0.55 0.55 0.52 0.46 0.43 0.43 0.46 0.48 0.46 0.46 0.44 0.44 0.43 0.44 0.44 0.45 0.44 0.39 0.35 0.39 0.50
0.47 0.29 0.32 0.37 0.50 0.49 0.52 0.48 0.55 0.71 0.71 0.69 0.74 0.83 0.85 0.89 0.95 0.98 1.04 1.09 1.03 0.97 0.90 0.83 0.77 0.67 0.58 0.57 0.56 0.55 0.50 0.44 0.43 0.44 0.46 0.47 0.47 0.47 0.46 0.47 0.47 0.45 0.42 0.40 0.40 0.39 0.36 0.33 0.41
0.34 0.30 0.31 0.32 0.41 0.48 0.43 0.44 0.48 0.60 0.66 0.66 0.69 0.73 0.77 0.81 0.82 0.92 1.00 1.03 0.98 0.92 0.88 0.79 0.71 0.64 0.59 0.58 0.56 0.53 0.49 0.45 0.44 0.44 0.46 0.47 0.47 0.48 0.47 0.50 0.48 0.46 0.41 0.40 0.40 0.39 0.40 0.35 0.38
0.38 0.34 0.30 0.35 0.41 0.40 0.37 0.42 0.45 0.50 0.51 0.59 0.64 0.67 0.71 0.75 0.86 0.90 0.89 0.90 0.84 0.86 0.78 0.67 0.60 0.59 0.58 0.54 0.51 0.47 0.43 0.44 0.47 0.47 0.47 0.48 0.47 0.49 0.51 0.51 0.47 0.46 0.43 0.41 0.42 0.41 0.38 0.35 0.38
0.34 0.32 0.32 0.34 0.35 0.33 0.34 0.36 0.36 0.38 0.41 0.53 0.57 0.59 0.59 0.62 0.66 0.68 0.67 0.63 0.62 0.60 0.58 0.55 0.54 0.55 0.56 0.55 0.52 0.50 0.47 0.48 0.49 0.49 0.47 0.47 0.50 0.52 0.55 0.48 0.47 0.48 0.45 0.44 0.43 0.42 0.39 0.38 0.40
0.31 0.29 0.30 0.25 0.28 0.33 0.31 0.29 0.32 0.37 0.39 0.41 0.45 0.52 0.54 0.49 0.47 0.49 0.51 0.53 0.51 0.45 0.45 0.46 0.50 0.55 0.55 0.55 0.54 0.53 0.50 0.48 0.46 0.47 0.46 0.48 0.53 0.57 0.51 0.51 0.50 0.49 0.51 0.46 0.45 0.45 0.43 0.36 0.40
0.31 0.36 0.34 0.31 0.26 0.25 0.33 0.17 0.24 0.30 0.30 0.34 0.36 0.36 0.40 0.43 0.44 0.46 0.49 0.47 0.44 0.43 0.44 0.44 0.48 0.53 0.54 0.55 0.52 0.47 0.44 0.43 0.47 0.46 0.48 0.55 0.59 0.52 0.53 0.54 0.53 0.52 0.54 0.51 0.49 0.51 0.48 0.46 0.39
0.32 0.40 0.34 0.32 0.27 0.24 0.25 0.20 0.19 0.25 0.21 0.24 0.29 0.33 0.37 0.40 0.42 0.43 0.42 0.42 0.43 0.44 0.45 0.46 0.48 0.51 0.54 0.53 0.51 0.49 0.48 0.50 0.48 0.52 0.55 0.53 0.48 0.51 0.54 0.56 0.55 0.54 0.56 0.57 0.53 0.52 0.51 0.50 0.46
0.41 0.34 0.30 0.33 0.28 0.17 0.21 0.21 0.18 0.18 0.21 0.23 0.26 0.30 0.34 0.38 0.39 0.39 0.40 0.41 0.41 0.45 0.45 0.47 0.48 0.49 0.51 0.52 0.53 0.51 0.46 0.48 0.52 0.49 0.42 0.44 0.48 0.49 0.50 0.52 0.54 0.56 0.56 0.58 0.57 0.56 0.56 0.54 0.53
0.31 0.26 0.20 0.18 0.16 0.15 0.21 0.18 0.22 0.25 0.25 0.25 0.26 0.28 0.32 0.35 0.35 0.37 0.37 0.40 0.42 0.43 0.45 0.47 0.48 0.48 0.52 0.52 0.51 0.53 0.54 0.50 0.42 0.41 0.42 0.41 0.42 0.44 0.46 0.50 0.50 0.51 0.54 0.55 0.57 0.55 0.54 0.55 0.54
0.26 0.29 0.21 0.12 0.13 0.16 0.20 0.14 0.18 0.29 0.32 0.30 0.31 0.33 0.35 0.34 0.36 0.38 0.40 0.43 0.44 0.46 0.46 0.47 0.47 0.48 0.52 0.52 0.50 0.48 0.43 0.42 0.42 0.42 0.41 0.41 0.40 0.41 0.45 0.46 0.47 0.48 0.51 0.52 0.54 0.53 0.52 0.52 0.53
0.23 0.19 0.26 0.20 0.21 0.16 0.16 0.19 0.26 0.28 0.26 0.30 0.31 0.33 0.32 0.34 0.37 0.40 0.43 0.44 0.44 0.45 0.48 0.49 0.48 0.47 0.47 0.43 0.41 0.41 0.42 0.40 0.39 0.41 0.42 0.41 0.42 0.42 0.44 0.43 0.43 0.44 0.46 0.48 0.50 0.51 0.51 0.52 0.51
0.26 0.27 0.20 0.20 0.12 0.11 0.17 0.14 0.15 0.20 0.21 0.25 0.28 0.29 0.32 0.36 0.38 0.41 0.43 0.43 0.45 0.46 0.46 0.45 0.43 0.40 0.40 0.41 0.42 0.42 0.42 0.41 0.42 0.41 0.39 0.38 0.38 0.38 0.38 0.39 0.41 0.40 0.42 0.44 0.45 0.47 0.50 0.52 0.54
0.22 0.19 0.19 0.19 0.17 0.13 0.12 0.16 0.23 0.20 0.24 0.23 0.26 0.31 0.33 0.37 0.40 0.42 0.42 0.40 0.39 0.39 0.38 0.38 0.39 0.40 0.40 0.41 0.40 0.40 0.40 0.42 0.42 0.41 0.40 0.40 0.42 0.43 0.43 0.44 0.43 0.43 0.42 0.42 0.42 0.43 0.46 0.48 0.49
0.24 0.21 0.20 0.15 0.15 0.16 0.15 0.14 0.27 0.25 0.27 0.28 0.30 0.35 0.38 0.41 0.40 0.40 0.39 0.39 0.38 0.37 0.38 0.38 0.40 0.40 0.41 0.43 0.46 0.49 0.50 0.48 0.48 0.47 0.48 0.51 0.50 0.52 0.51 0.50 0.49 0.49 0.49 0.50 0.48 0.47 0.47 0.45 0.45
Wind_Speed
33 29 25 22 20 18 19 16 16 13 10 9 8 8 7 3 2 4 7 8 8 7 7 6 5 4 3 3 3 4 4 5 5 6 7 8 8 9 9 9 10 11 11 11 11 11 11 11 11
34 31 27 25 22 21 21 20 16 14 14 12 9 8 4 3 3 7 7 8 7 8 7 5 4 3 3 2 2 3 4 5 6 7 7 8 8 9 9 10 11 11 12 12 12 12 12 13 13
36 34 29 27 27 25 23 21 20 17 14 13 11 7 6 7 5 5 8 8 7 7 6 5 4 3 2 2 2 3 4 5 6 7 8 8 9 10 10 11 12 12 12 13 13 13 14 14 14
37 34 31 30 31 29 23 18 22 18 14 13 13 8 7 8 7 7 9 8 7 6 5 4 3 2 1 1 2 3 4 6 6 7 8 9 10 10 11 12 12 13 14 14 14 15 15 15 15
37 35 34 33 33 30 27 22 22 20 17 16 14 11 9 8 10 10 8 7 6 5 4 3 3 2 1 1 2 4 5 6 7 8 9 10 10 11 12 13 14 15 16 16 16 16 17 17 17
36 37 36 35 33 31 28 26 24 21 20 18 14 13 11 11 11 10 9 7 6 5 4 4 3 3 2 2 3 4 5 7 8 9 10 11 11 12 13 14 15 17 17 17 17 17 18 18 19
37 37 37 36 33 31 31 27 25 22 20 19 18 13 14 12 12 11 10 8 6 5 5 5 4 4 3 3 4 5 6 7 8 9 11 11 12 13 14 16 17 18 17 17 18 18 19 19 20
37 35 36 38 36 30 31 28 25 25 21 20 19 16 16 15 14 13 11 8 6 6 6 6 6 5 4 4 5 6 7 8 9 10 11 12 13 14 15 17 19 18 18 19 19 19 20 21 22
37 34 38 37 39 32 27 29 24 24 22 19 18 16 17 17 15 13 12 10 8 7 7 7 7 6 5 5 6 7 8 9 10 11 12 13 14 15 16 19 19 19 20 20 21 22 22 23 24
37 37 37 36 38 34 30 25 27 24 22 19 17 15 17 17 16 15 13 11 10 9 9 8 8 7 6 7 7 8 9 10 10 12 13 14 15 16 18 20 20 21 21 21 23 24 25 26 26
37 35 37 37 35 37 36 27 24 25 24 23 22 20 19 17 17 16 14 13 12 10 9 9 9 8 7 8 8 9 10 11 11 13 14 15 17 18 19 20 21 22 23 23 24 26 27 28 28
31 34 35 34 31 37 40 33 27 23 24 25 23 22 20 19 17 17 15 14 13 12 11 10 10 9 9 8 9 10 11 11 13 14 16 16 18 19 20 22 23 24 24 25 27 28 29 29 30
30 31 32 32 32 37 37 35 29 29 22 24 23 23 22 20 18 17 16 14 14 12 12 11 10 10 9 9 9 10 11 13 14 14 15 17 18 20 22 23 24 24 26 27 28 29 30 31 31
29 28 28 28 29 33 36 33 29 26 27 26 23 22 22 21 19 17 17 15 14 14 13 12 11 11 10 10 11 12 13 13 14 15 16 18 19 21 22 24 25 27 28 30 30 31 31 32 31
25 27 27 26 28 29 33 29 31 27 27 28 23 22 21 20 20 19 17 17 16 15 14 13 12 12 11 12 12 13 14 15 15 17 18 19 21 22 24 25 27 29 31 31 32 32 33 31 30
25 24 25 25 27 29 30 30 29 29 25 27 22 21 20 20 20 18 18 17 16 16 16 14 13 13 13 13 14 14 15 16 17 18 19 21 22 23 25 27 29 31 33 33 33 33 32 30 29
23 24 25 24 27 29 27 28 28 28 26 24 24 21 20 19 18 18 17 17 17 17 16 15 15 14 14 15 15 16 16 17 18 20 21 22 23 25 27 29 31 33 34 34 33 32 31 29 27
20 23 25 26 28 28 28 26 28 27 26 24 22 21 19 18 18 17 17 17 17 17 17 16 16 16 16 16 17 17 18 19 20 21 22 23 25 27 29 31 32 33 34 34 32 31 29 27 24
15 19 24 24 25 27 28 28 29 26 22 23 22 20 19 19 18 17 17 17 16 17 17 17 17 17 17 17 18 19 19 20 21 23 24 25 26 28 30 32 32 33 33 31 30 29 27 24 21
14 16 21 21 23 23 25 25 26 25 22 22 22 21 20 17 17 16 16 17 17 18 18 18 18 18 19 19 19 19 20 21 23 24 25 26 28 30 31 31 31 31 30 29 28 26 23 20 19
13 18 22 23 24 22 23 19 22 23 22 20 17 18 18 18 17 16 16 17 18 18 19 19 19 19 19 19 20 21 22 23 24 24 25 27 29 30 31 31 30 28 27 27 26 24 20 18 18
11 15 20 23 22 24 20 18 20 22 21 20 19 17 16 16 16 16 16 16 17 18 18 19 19 19 20 20 21 22 22 23 24 25 27 29 30 30 30 29 26 25 25 25 24 21 19 17 18
13 15 17 21 19 18 18 13 18 20 20 20 20 18 17 17 16 16 16 16 16 17 17 18 19 19 19 21 21 22 23 24 26 27 29 30 30 30 29 26 24 25 24 24 23 22 20 19 18
15 15 15 17 16 13 17 14 14 18 17 18 17 17 17 17 17 16 16 16 16 17 17 17 18 19 20 20 22 23 24 26 27 29 29 29 30 28 25 24 25 26 25 25 24 22 21 20 19
15 16 14 12 11 14 14 11 12 15 13 18 17 17 16 16 16 16 16 17 17 17 17 18 18 19 20 21 23 24 26 27 29 29 30 30 27 25 25 25 26 26 26 25 25 23 22 21 20
13 14 13 13 13 11 11 11 10 10 9 11 14 15 15 16 16 17 17 17 17 18 18 18 19 20 21 23 24 26 27 28 29 30 29 25 25 26 27 27 27 27 26 26 26 25 24 22 21
10 10 8 11 8 9 9 8 7 8 9 10 11 13 14 14 15 15 16 17 18 18 18 19 20 21 23 24 25 27 28 29 28 26 25 26 27 27 27 27 27 27 27 27 26 26 26 25 24
9 9 8 6 7 6 5 6 7 7 9 10 12 13 14 15 15 16 16 17 18 19 20 21 22 23 24 26 27 28 27 26 27 28 28 28 28 27 28 28 28 28 28 28 27 27 27 27 26
6 6 6 7 6 6 5 6 6 6 7 10 12 13 14 15 16 17 18 19 20 22 23 24 25 26 26 27 27 27 28 29 28 28 28 28 28 29 29 29 29 29 29 29 28 28 28 28 28
5 4 4 4 3 3 4 6 5 5 6 8 11 13 14 16 18 19 21 22 23 25 26 26 27 27 27 27 28 29 30 30 29 29 29 30 31 31 31 31 31 30 30 30 29 29 29 29 29
Wind_Direction
220 222 221 217 212 212 212 213 211 195 193 193 189 156 147 149 155 152 137 140 143 149 148 143 135 125 109 91 72 55 42 29 19 11 5 1 357 355 354 353 351 348 345 343 337 332 328 324 322
218 218 216 216 213 212 213 209 207 205 192 185 174 177 179 167 151 138 136 149 145 148 150 146 139 129 114 89 62 39 21 10 4 1 360 359 357 354 351 348 346 344 340 337 333 328 325 321 316
215 215 214 215 216 214 212 209 208 202 194 198 197 188 189 178 173 161 152 152 146 149 149 150 148 136 118 83 37 15 6 2 356 353 352 350 348 346 344 343 341 339 336 333 330 326 323 321 317
212 214 217 218 218 217 212 215 210 201 202 199 192 195 196 210 195 167 151 156 151 153 153 151 159 157 132 52 16 2 352 350 350 350 348 347 345 343 341 339 337 335 332 328 326 323 320 317 315
211 212 215 219 218 216 213 215 220 206 204 198 203 204 206 200 178 172 167 168 166 168 173 178 179 187 199 322 341 342 342 342 343 342 342 341 339 338 336 335 333 330 327 324 322 320 317 315 312
211 212 214 215 216 215 214 218 208 208 204 203 204 203 209 200 192 192 190 187 195 201 206 204 210 220 245 288 321 332 335 336 336 337 336 335 334 335 335 334 332 329 326 324 322 320 318 316 313
212 212 215 211 213 214 212 211 212 207 203 207 199 210 211 205 202 199 200 203 208 209 217 219 229 234 254 281 307 322 328 330 331 332 333 333 332 331 331 331 330 330 329 326 324 322 320 317 314
211 213 212 211 211 212 209 210 213 203 205 204 206 214 214 211 203 202 203 205 213 226 233 234 235 243 257 280 300 314 323 326 327 329 330 330 330 328 329 330 329 328 327 326 324 322 320 318 316
208 213 212 210 207 205 206 208 211 211 205 211 217 214 209 202 202 204 208 214 226 235 244 237 238 245 256 281 294 308 317 321 322 324 326 328 328 328 328 328 328 326 324 323 323 321 318 316 314
207 210 212 211 209 205 207 204 206 209 207 213 210 207 201 204 208 210 215 226 235 240 239 237 239 249 262 279 291 302 313 319 320 323 325 325 325 326 326 326 326 325 322 321 321 320 318 316 313
208 211 213 212 212 207 205 208 208 205 214 215 209 205 207 209 213 217 223 231 234 235 238 237 242 251 264 279 291 300 309 314 316 320 323 323 324 324 325 326 325 324 323 320 320 319 316 315 312
209 210 209 208 214 211 209 209 210 210 215 216 211 210 212 212 216 219 225 231 230 236 237 240 243 254 267 278 288 300 306 311 312 315 320 320 322 324 325 326 325 325 323 321 319 317 316 314 313
209 205 210 212 216 211 205 208 214 216 218 206 206 211 213 216 218 224 228 231 232 235 237 241 245 256 264 276 289 299 305 310 315 317 319 322 324 324 325 325 325 324 322 320 318 317 316 314 312
203 204 209 208 211 205 199 205 209 215 211 202 204 212 214 217 221 225 229 231 232 236 237 239 248 254 262 275 287 295 302 306 310 313 317 320 322 323 324 324 324 323 322 320 318 317 315 314 312
198 200 208 203 202 196 191 200 206 205 204 203 206 211 215 221 223 228 230 231 233 236 237 242 247 254 264 274 285 293 298 302 306 310 314 317 319 321 323 323 323 322 321 319 318 316 315 314 312
195 193 195 199 197 197 196 202 200 200 202 206 209 212 216 221 225 229 231 231 234 235 237 242 249 257 266 275 285 291 297 301 304 307 310 313 316 319 321 322 322 321 321 319 317 316 315 314 313
194 193 190 192 195 195 195 197 201 200 202 205 211 214 218 222 227 228 229 233 234 236 238 243 250 258 267 276 283 290 295 299 302 305 308 310 314 316 319 320 321 321 320 319 317 315 315 314 313
188 188 190 190 195 193 194 198 196 198 203 206 210 215 220 224 225 227 231 232 234 236 240 247 253 260 267 276 283 288 293 297 300 304 306 308 312 314 317 319 320 321 321 321 319 317 315 315 314
180 181 186 190 193 194 199 198 201 203 205 209 213 217 221 224 227 229 231 234 237 239 242 248 256 262 269 275 281 287 290 295 299 302 304 306 309 312 315 317 319 321 322 323 322 320 317 316 317
174 174 185 187 188 191 194 201 205 208 211 213 215 217 221 224 226 230 233 237 240 242 247 252 258 264 269 275 281 286 290 295 299 302 304 306 308 311 313 315 318 321 324 326 325 325 321 316 319
174 182 183 180 184 193 188 200 200 207 209 208 213 219 223 223 225 231 235 241 244 247 252 256 260 264 270 275 281 286 291 295 299 302 304 306 308 310 311 313 316 319 324 326 327 327 323 317 318
172 178 179 173 178 185 188 201 205 204 206 214 213 216 219 222 228 234 240 244 247 252 256 259 262 264 270 276 282 287 291 295 298 301 304 306 308 309 310 311 313 317 323 326 326 325 321 315 314
166 162 165 169 170 175 193 188 205 199 210 215 220 220 222 224 229 236 242 245 250 254 258 261 264 267 273 279 283 287 291 295 299 302 304 306 307 308 309 308 309 313 318 322 323 319 315 312 309
156 147 148 158 166 178 190 186 206 202 211 214 217 218 222 228 234 238 242 247 253 258 260 264 267 272 275 279 284 288 292 296 299 302 303 305 306 306 306 306 307 308 310 314 318 317 310 306 305
135 139 145 153 167 181 187 184 206 206 215 214 213 218 225 230 234 239 244 249 255 259 263 266 269 273 277 282 287 290 293 296 299 300 302 303 303 304 304 305 306 307 306 307 309 310 311 303 300
133 147 152 159 165 175 180 197 209 201 210 207 214 220 228 234 239 244 248 252 257 261 264 269 272 277 281 285 289 292 295 297 298 299 299 299 300 302 303 304 304 303 304 304 302 302 303 303 297
144 143 147 142 152 156 186 199 207 214 212 212 214 223 232 238 243 247 251 256 260 265 269 272 276 280 284 287 290 293 295 297 297 298 298 298 299 300 301 302 302 302 303 302 301 298 297 296 295
149 143 136 143 156 166 205 201 214 227 227 229 232 237 243 247 248 253 258 263 268 269 273 276 278 281 285 288 291 293 295 295 296 296 296 297 298 298 299 300 301 300 300 300 298 297 295 293 291
131 129 122 141 149 167 178 221 216 222 231 230 237 243 248 251 257 261 266 269 271 273 275 277 280 283 286 288 290 292 293 294 294 294 294 295 296 298 298 299 299 299 299 298 297 295 293 291 290
139 152 143 148 189 184 184 232 248 248 260 249 256 258 259 260 264 267 270 273 275 277 278 279 282 284 286 288 289 292 292 293 293 293 293 295 297 297 297 297 298 297 297 297 296 294 293 291 289